This is the latest recevied weather packets stored in our database for station/object W2GRK-15. If no packets are shown the sender has not sent any weather packets the latest 10 day(s).
| Time | Temp. | Humidity | Pressure | Rain* | Wind** | Luminosity | Snow |
|---|---|---|---|---|---|---|---|
| 1777918776 | 22.22° C | 35% | 1011.2 hPa | 0 mm | - | 712 W/m² | - |
| 1777918530 | 22.22° C | 36% | 1011.5 hPa | 0 mm | - | 721 W/m² | - |
| 1777918466 | 22.22° C | 35% | 1011.3 hPa | 0 mm | - | 722 W/m² | - |
| 1777918224 | 21.67° C | 35% | 1011.3 hPa | 0 mm | - | 727 W/m² | - |
| 1777918159 | 21.67° C | 34% | 1011.2 hPa | 0 mm | - | 729 W/m² | - |
| 1777918111 | 21.67° C | 35% | 1011.4 hPa | 0 mm | - | 726 W/m² | - |
| 1777918047 | 22.22° C | 34% | 1011.4 hPa | 0 mm | - | 730 W/m² | - |
| 1777917918 | 21.67° C | 36% | 1011.4 hPa | 0 mm | - | 736 W/m² | - |
| 1777917628 | 21.67° C | 36% | 1011.7 hPa | 0 mm | - | 744 W/m² | - |
| 1777917144 | 21.67° C | 35% | 1011.6 hPa | 0 mm | - | 757 W/m² | - |
| 1777916966 | 21.67° C | 35% | 1011.8 hPa | 0 mm | - | 759 W/m² | - |
| 1777916568 | 22.22° C | 36% | 1011.8 hPa | 0 mm | - | 759 W/m² | - |
| 1777916483 | 22.22° C | 35% | 1011.7 hPa | 0 mm | - | 762 W/m² | - |
| 1777916419 | 22.22° C | 37% | 1011.9 hPa | 0 mm | - | 774 W/m² | - |
| 1777916241 | 21.67° C | 38% | 1011.7 hPa | 0 mm | - | 777 W/m² | - |
| 1777916177 | 21.67° C | 36% | 1011.7 hPa | 0 mm | - | 778 W/m² | - |
| 1777916129 | 21.67° C | 36% | 1011.8 hPa | 0 mm | - | 776 W/m² | - |
| 1777915907 | 21.11° C | 37% | 1011.6 hPa | 0 mm | - | 776 W/m² | - |
| 1777915311 | 21.67° C | 34% | 1011.9 hPa | 0 mm | - | 787 W/m² | - |
| 1777915162 | 21.67° C | 37% | 1011.6 hPa | 0 mm | - | 788 W/m² | - |
| 1777915118 | 21.67° C | 36% | 1011.8 hPa | 0 mm | - | 792 W/m² | - |
| 1777914985 | 21.67° C | 36% | 1011.9 hPa | 0 mm | - | 791 W/m² | - |
| 1777914679 | 21.11° C | 37% | 1012.2 hPa | 0 mm | - | 787 W/m² | - |
| 1777914631 | 20.56° C | 38% | 1012 hPa | 0 mm | - | 789 W/m² | - |
| 1777914103 | 20.56° C | 36% | 1012.2 hPa | 0 mm | - | 794 W/m² | - |
* Rain latest hour (hover to see other rain measurements)
** Current wind speed in m/s (hover to see current wind gust speed)